Regional Weather Roundup
Issued by NWS

Home | Current Version | Previous Version | Graphics & Text | Print | Product List | Glossary On
Versions: 1 2 3 4 5 6 7 8 9 10 11 12 13 14 15 16 17 18 19 20 21 22 23 24 25 26 27 28 29 30 31 32 33 34 35 36 37 38 39 40 41 42 43 44 45 46 47 48 49 50
000
ASUS43 KMKX 050321
RWRWI

WISCONSIN REGIONAL WEATHER ROUNDUP
NATIONAL WEATHER SERVICE MILWAUKEE/SULLIVAN WI
1000 PM CDT SAT JUL 04 2015

NOTE: "FAIR" INDICATES FEW OR NO CLOUDS BELOW 12,000 FEET WITH NO
SIGNIFICANT WEATHER AND/OR OBSTRUCTIONS TO VISIBILITY.

WIZ001-002-006>008-014>016-023>028-050400-
NORTHWEST WISCONSIN

CITY           SKY/WX    TMP DP  RH WIND       PRES   REMARKS
SUPERIOR ARPT  PTCLDY    58  57  94 NE6       29.93R
ASHLAND        CLEAR     56  56 100 CALM      29.92R
HAYWARD        CLOUDY    70  64  81 CALM      29.93R
SIREN          CLEAR     72  64  76 S5        29.91R HAZE
CUMBERLAND     PTCLDY    68  64  88 S6        29.93R FOG
RICE LAKE      CLEAR     71  64  79 SE3       29.94R HAZE
CHETEK         CLEAR     69  65  88 CALM      29.93
LADYSMITH      CLEAR     70  64  79 S3        29.95R
EAU CLAIRE     CLEAR     74  65  73 S6        29.92R HAZE
MENOMONIE      CLEAR     71  65  80 S6        29.92R HAZE
NEW RICHMOND   CLEAR     72  65  80 S7        29.92R HAZE
OSCEOLA        CLEAR     71  67  86 SE3       29.94R FOG
$$

WIZ003>005-009-010-017-018-050400-
NORTH CENTRAL WISCONSIN

CITY           SKY/WX    TMP DP  RH WIND       PRES   REMARKS
MANITOWISH WTR PTCLDY    64  61  91 SE5       29.95S
ARBOR VITAE    PTCLDY    67  62  83 CALM      29.96S
WOODRUFF       PTCLDY    67  62  83 CALM      29.96S
RHINELANDER    PTCLDY    66  61  84 CALM      29.98R
EAGLE RIVER    MOCLDY    68  61  77 S3        29.97R
LAND O LAKES   MOCLDY    62  58  88 CALM      29.98R
PHILLIPS       CLEAR     69  63  79 S5        29.94S
TOMAHAWK       PTCLDY    64  61  91 CALM      29.97R
MEDFORD        CLEAR     67  64  88 SE3       29.96S FOG
MERRILL        PTCLDY    67  63  84 S3        29.98R
$$

WIZ029-030-035-036-043>047-050400-
CENTRAL WISCONSIN

CITY           SKY/WX    TMP DP  RH WIND       PRES   REMARKS
WAUSAU         MOCLDY    73  63  70 E3        29.95R HAZE
MOSINEE        PTCLDY    72  66  83 S6        29.98R
MARSHFIELD     PTCLDY    70  63  78 S3        29.97R HAZE
STEVENS POINT  MOCLDY    70  62  75 S3        29.98R
WAUPACA        PTCLDY    72  64  78 CALM      29.97R
WAUTOMA        CLEAR     70  64  81 CALM      29.98R
WISC RAPIDS    CLEAR     70  63  78 S3        29.98R
CAMP DOUGLAS   CLEAR     65  65 100 S6        29.96R
$$

WIZ011>013-019>022-031-037>040-048>050-050400-
NORTHEAST WISCONSIN

CITY           SKY/WX    TMP DP  RH WIND       PRES   REMARKS
ANTIGO         CLEAR     66  63  89 SE7       29.99R
SHAWANO        FAIR      70  64  80 SE3       29.98R
OCONTO         CLEAR     65  63  92 SE3       29.99R
STURGEON BAY   CLEAR     61  55  82 SE6       30.03R
GREEN BAY      CLEAR     66  61  84 SE5       29.99R
MANITOWOC      CLEAR     63  60  90 MISG      30.01R FOG
APPLETON       MOCLDY    72  61  68 VRB5      29.99R
CLINTONVILLE   PTCLDY    70  63  78 SE3       29.97R
OSHKOSH        CLEAR     69  63  81 S3        29.98R
$$

WIZ032>034-041-042-053>061-050400-
SOUTHWEST WISCONSIN

CITY           SKY/WX    TMP DP  RH WIND       PRES   REMARKS
LA CROSSE      CLEAR     73  65  75 S6        29.94R
SPARTA         CLEAR     67  62  84 CALM      29.97R
VIROQUA        CLEAR     70  64  80 S6        29.98S
BOSCOBEL       CLEAR     67  65  93 CALM      29.97R
PRAIRIE DU CHI CLEAR     67  62  82 CALM      29.97R
PLATTEVILLE    CLEAR     70  64  81 SE6       30.00R
$$

WIZ056-057-062-063-064-067-068-050400-
SOUTH CENTRAL WISCONSIN

CITY           SKY/WX    TMP DP  RH WIND       PRES   REMARKS
REEDSBURG      CLEAR     69  62  78 CALM      29.98R
BARABOO/DELLS  CLEAR     68  60  74 S3        29.99R
LONE ROCK      CLEAR     65  61  87 CALM      29.99R
MINERAL POINT  CLEAR     70  59  68 SE5       30.01R
MADISON        PTCLDY    71  61  70 CALM      29.99R
MIDDLETON      CLEAR     67  64  87 CALM      30.00R
WATERTOWN      CLEAR     67  66  97 CALM      30.00R
MONROE         CLEAR     70  63  78 S6        30.01R
JANESVILLE     CLEAR     70  61  73 S3        30.00R
$$

WIZ051-052-058>065-066-070>072-050400-
SOUTHEAST WISCONSIN

CITY           SKY/WX    TMP DP  RH WIND       PRES   REMARKS
MILWAUKEE      MOCLDY    68  55  63 S5        30.01R
WAUKESHA       CLEAR     70  61  73 S3        30.02R
MILWAUKEE/TIMM CLEAR     70  57  64 S5        30.01R
RACINE         CLEAR     67  53  61 S3        30.03R
BURLINGTON     CLEAR     63  61  93 CALM      30.02R
KENOSHA        CLEAR     68  56  65 S6        30.02R
FOND DU LAC    CLEAR     69  63  81 S3        29.99R
SHEBOYGAN      CLEAR     62  58  86 CALM      30.00R
WEST BEND      CLEAR     64  61  88 CALM      30.01R
JUNEAU         CLEAR     70  62  75 S5        30.01R
$$

LSZ147-162-050400-
LAKE SUPERIOR

STATION/POSITION TIME  TEMP    WIND        PRES    WAVE
                       AIR SEA DIR/SP/G            HT/PER
                 (UTC) (F)     (DEG/KT/KT) (MB)    (FT/S)
W MID LAKE BUOY  0250   47 39  100/  8/ 10 1013.4R   0
DEVILS ISLAND    0300   58      10/  7/  8 1013.6R
SAXON HARBOR     0300   62      CALM  / 23 1012.5R
$$

LMZ867-665-643>646-050400-
LAKE MICHIGAN

STATION/POSITION TIME  TEMP    WIND        PRES    WAVE
                       AIR SEA DIR/SP/G            HT/PER
                 (UTC) (F)     (DEG/KT/KT) (MB)    (FT/S)
CHAMBERS ISLAND  0200   66     130/  2/  6 1015.2R
S GREEN BAY BUOY 0300   68 69  140/  8/ 10 1016.8R
N MID LAKE BUOY  0250   57 53  210/  6/  6 1016.4R   0
NORTHPORT PIER   0200   63     170/  3/  6 1015.6R
SISTER BAY       0244   62     160/  8/ 11   N/A
ALGOMA LAKESHORE 0111          210/  5/  7   N/A
KEWAUNEE LAKESHO 0200   62     140/  1/  3 1014.9R
SHEBOYGAN LAKESH 0300   62     150/  5/  6 1016.2R
PORT WASHINGTON  0200   65      CALM  /  2 1015.9
ATWATER BUOY     0300   64 61  180/  6/  8 1017.3R
MILWAUKEE LAKESH 0300   69     170/  6/  7   N/A
KENOSHA   LAKESH 0300   68     180/  7/  9 1016.3R
$$

TC  - TEMPERATURE IN CELSIUS
VSB - VISIBILITY IN STATUTE MILES
WCI - WIND CHILL INDEX
HX  - HEAT INDEX



USA.gov is the U.S. government's official web portal to all federal, state and local government web resources and services.